"read_dt","SO2 (ppb)","flags","PMT voltage (V)","lamp voltage (V)","lamp intensity (Hz)","internal temp (C)","react chamber temp (C)","sample flow (l/min)","pres (mmHg)","SO2 bkg (ppb)","SO2 coefficient"
2015-06-08 00:00:00,2032E-3,5C000000,-0724,0828,12142,031.3,045.6,0.470,733.0,01.19,0.508
2015-06-08 00:01:00,1976E-3,5C000000,-0724,0827,12137,031.3,045.6,0.471,733.0,01.19,0.508
2015-06-08 00:02:00,1964E-3,5C000000,-0724,0827,12219,031.3,045.6,0.470,733.0,01.19,0.508
2015-06-08 00:03:00,1859E-3,5C000000,-0724,0828,12201,031.3,045.5,0.471,733.0,01.19,0.508
2015-06-08 00:04:00,1836E-3,5C000000,-0724,0829,12215,031.3,045.6,0.470,733.1,01.19,0.508
2015-06-08 00:05:00,1851E-3,5C000000,-0724,0828,12284,031.3,045.6,0.471,733.0,01.19,0.508
2015-06-08 00:06:00,1961E-3,5C000000,-0724,0828,12199,031.3,045.6,0.470,733.1,01.19,0.508
2015-06-08 00:07:00,1958E-3,5C000000,-0724,0827,12242,031.3,045.5,0.471,733.0,01.19,0.508
2015-06-08 00:08:00,1961E-3,5C000000,-0724,0827,12203,031.3,045.5,0.470,733.0,01.19,0.508
2015-06-08 00:09:00,1781E-3,5C000000,-0724,0828,12249,031.2,045.6,0.471,733.0,01.19,0.508
2015-06-08 00:10:00,1822E-3,5C000000,-0724,0827,12239,031.3,045.6,0.470,733.1,01.19,0.508
2015-06-08 00:11:00,1909E-3,5C000000,-0724,0827,12228,031.3,045.6,0.471,733.1,01.19,0.508
2015-06-08 00:12:00,1839E-3,5C000000,-0724,0827,12284,031.2,045.6,0.470,733.1,01.19,0.508
2015-06-08 00:13:00,1756E-3,5C000000,-0724,0827,12176,031.2,045.6,0.471,733.1,01.19,0.508
2015-06-08 00:14:00,1754E-3,5C000000,-0724,0827,12196,031.2,045.6,0.470,733.1,01.19,0.508
2015-06-08 00:15:00,1773E-3,5C000000,-0724,0827,12305,031.2,045.6,0.471,733.1,01.19,0.508
2015-06-08 00:16:00,1786E-3,5C000000,-0724,0828,12054,031.2,045.6,0.470,733.1,01.19,0.508
2015-06-08 00:17:00,1773E-3,5C000000,-0724,0827,12343,031.2,045.6,0.471,733.1,01.19,0.508
2015-06-08 00:18:00,1749E-3,5C000000,-0724,0827,12234,031.2,045.5,0.471,733.0,01.19,0.508
2015-06-08 00:19:00,1776E-3,5C000000,-0724,0827,12204,031.2,045.5,0.471,733.0,01.19,0.508
2015-06-08 00:20:00,1755E-3,5C000000,-0724,0826,12157,031.2,045.6,0.471,733.0,01.19,0.508
2015-06-08 00:21:00,1824E-3,5C000000,-0724,0828,12307,031.2,045.6,0.471,733.0,01.19,0.508
2015-06-08 00:22:00,1797E-3,5C000000,-0724,0828,12405,031.2,045.5,0.471,733.0,01.19,0.508
2015-06-08 00:23:00,1820E-3,5C000000,-0724,0827,12214,031.2,045.5,0.471,733.0,01.19,0.508
2015-06-08 00:24:00,1741E-3,5C000000,-0724,0827,12162,031.1,045.5,0.470,733.0,01.19,0.508
2015-06-08 00:25:00,1809E-3,5C000000,-0724,0828,12355,031.1,045.6,0.471,733.1,01.19,0.508
2015-06-08 00:26:00,1750E-3,5C000000,-0724,0827,12394,031.1,045.6,0.471,733.1,01.19,0.508
2015-06-08 00:27:00,1758E-3,5C000000,-0724,0827,12168,031.1,045.5,0.471,733.1,01.19,0.508
2015-06-08 00:28:00,1804E-3,5C000000,-0724,0828,12052,031.1,045.5,0.471,733.1,01.19,0.508
2015-06-08 00:29:00,1747E-3,5C000000,-0724,0827,12185,031.1,045.5,0.471,733.1,01.19,0.508
2015-06-08 00:30:00,1779E-3,5C000000,-0724,0827,12106,031.1,045.5,0.471,733.1,01.19,0.508
2015-06-08 00:31:00,1701E-3,5C000000,-0724,0827,12343,031.1,045.5,0.471,733.1,01.19,0.508
2015-06-08 00:32:00,1868E-3,5C000000,-0724,0827,12178,031.1,045.6,0.470,733.1,01.19,0.508
2015-06-08 00:33:00,1668E-3,5C000000,-0724,0828,12323,031.1,045.6,0.471,733.1,01.19,0.508
2015-06-08 00:34:00,1611E-3,5C000000,-0724,0827,12008,031.1,045.5,0.470,733.1,01.19,0.508
2015-06-08 00:35:00,1714E-3,5C000000,-0724,0826,12237,031.1,045.6,0.471,733.1,01.19,0.508
2015-06-08 00:36:00,1618E-3,5C000000,-0724,0828,12131,031.1,045.5,0.471,733.1,01.19,0.508
2015-06-08 00:37:00,1733E-3,5C000000,-0724,0827,12337,031.1,045.5,0.471,733.2,01.19,0.508
2015-06-08 00:38:00,1786E-3,5C000000,-0724,0828,12268,031.1,045.6,0.471,733.2,01.19,0.508
2015-06-08 00:39:00,1763E-3,5C000000,-0724,0828,12184,031.0,045.6,0.471,733.2,01.19,0.508
2015-06-08 00:40:00,1689E-3,5C000000,-0724,0827,12092,031.0,045.6,0.471,733.3,01.19,0.508
2015-06-08 00:41:00,1707E-3,5C000000,-0724,0828,12157,031.0,045.5,0.471,733.3,01.19,0.508
2015-06-08 00:42:00,1691E-3,5C000000,-0724,0827,12182,031.0,045.5,0.471,733.3,01.19,0.508
2015-06-08 00:43:00,1868E-3,5C000000,-0724,0827,12184,031.0,045.6,0.471,733.3,01.19,0.508
2015-06-08 00:44:00,1799E-3,5C000000,-0724,0827,12305,031.0,045.6,0.471,733.3,01.19,0.508
2015-06-08 00:45:00,1853E-3,5C000000,-0724,0827,12113,031.0,045.6,0.471,733.3,01.19,0.508
2015-06-08 00:46:00,1752E-3,5C000000,-0724,0826,12072,031.0,045.5,0.471,733.3,01.19,0.508
2015-06-08 00:47:00,1794E-3,5C000000,-0724,0827,12181,031.0,045.5,0.471,733.4,01.19,0.508
2015-06-08 00:48:00,1845E-3,5C000000,-0724,0828,12310,031.0,045.5,0.471,733.4,01.19,0.508
2015-06-08 00:49:00,1849E-3,5C000000,-0724,0828,12230,031.0,045.6,0.471,733.4,01.19,0.508
2015-06-08 00:50:00,1954E-3,5C000000,-0724,0827,12100,031.0,045.6,0.471,733.4,01.19,0.508
2015-06-08 00:51:00,1831E-3,5C000000,-0724,0826,12139,031.0,045.6,0.471,733.4,01.19,0.508
2015-06-08 00:52:00,1887E-3,5C000000,-0724,0828,12146,031.0,045.5,0.471,733.4,01.19,0.508
2015-06-08 00:53:00,1903E-3,5C000000,-0724,0826,12349,031.0,045.6,0.471,733.4,01.19,0.508
2015-06-08 00:54:00,1733E-3,5C000000,-0724,0828,12207,031.0,045.6,0.471,733.3,01.19,0.508
2015-06-08 00:55:00,1835E-3,5C000000,-0724,0826,12209,030.9,045.5,0.471,733.4,01.19,0.508
2015-06-08 00:56:00,1730E-3,5C000000,-0724,0827,12067,030.9,045.5,0.471,733.3,01.19,0.508
2015-06-08 00:57:00,1857E-3,5C000000,-0724,0827,12219,030.9,045.6,0.471,733.4,01.19,0.508
2015-06-08 00:58:00,1880E-3,5C000000,-0724,0827,12155,030.9,045.5,0.471,733.4,01.19,0.508
2015-06-08 00:59:00,1799E-3,5C000000,-0724,0826,12134,030.9,045.5,0.471,733.4,01.19,0.508
2015-06-08 01:00:00,1951E-3,5C000000,-0724,0829,12296,030.9,045.5,0.471,733.4,01.19,0.508
2015-06-08 01:01:00,1890E-3,5C000000,-0724,0828,12341,030.9,045.6,0.471,733.4,01.19,0.508
2015-06-08 01:02:00,1709E-3,5C000000,-0724,0827,12227,030.9,045.5,0.471,733.4,01.19,0.508
2015-06-08 01:03:00,1791E-3,5C000000,-0724,0828,12177,030.9,045.6,0.471,733.4,01.19,0.508
2015-06-08 01:04:00,1988E-3,5C000000,-0724,0828,12220,030.9,045.5,0.471,733.4,01.19,0.508
2015-06-08 01:05:00,1774E-3,5C000000,-0724,0828,12233,030.9,045.5,0.471,733.4,01.19,0.508
2015-06-08 01:06:00,1921E-3,5C000000,-0724,0828,12117,030.8,045.5,0.471,733.4,01.19,0.508
2015-06-08 01:07:00,1949E-3,5C000000,-0724,0828,12055,030.8,045.5,0.471,733.4,01.19,0.508
2015-06-08 01:08:00,1907E-3,5C000000,-0724,0827,12277,030.8,045.5,0.471,733.4,01.19,0.508
2015-06-08 01:09:00,1857E-3,5C000000,-0724,0828,12363,030.8,045.5,0.471,733.3,01.19,0.508
2015-06-08 01:10:00,1826E-3,5C000000,-0724,0827,12245,030.8,045.6,0.471,733.3,01.19,0.508
2015-06-08 01:11:00,1781E-3,5C000000,-0724,0828,12149,030.8,045.5,0.471,733.3,01.19,0.508
2015-06-08 01:12:00,1754E-3,5C000000,-0724,0828,12292,030.8,045.5,0.471,733.3,01.19,0.508
2015-06-08 01:13:00,1879E-3,5C000000,-0724,0828,12270,030.8,045.5,0.471,733.3,01.19,0.508
2015-06-08 01:14:00,1781E-3,5C000000,-0724,0827,12329,030.8,045.5,0.471,733.4,01.19,0.508
2015-06-08 01:15:00,1808E-3,5C000000,-0724,0828,12183,030.8,045.5,0.472,733.3,01.19,0.508
2015-06-08 01:16:00,1771E-3,5C000000,-0724,0827,12238,030.8,045.5,0.471,733.4,01.19,0.508
2015-06-08 01:17:00,1727E-3,5C000000,-0724,0828,12167,030.8,045.5,0.472,733.4,01.19,0.508
2015-06-08 01:18:00,1790E-3,5C000000,-0724,0827,12157,030.8,045.5,0.471,733.4,01.19,0.508
2015-06-08 01:19:00,1696E-3,5C000000,-0724,0827,12143,030.8,045.5,0.471,733.4,01.19,0.508
2015-06-08 01:20:00,1850E-3,5C000000,-0724,0827,12195,030.8,045.5,0.471,733.4,01.19,0.508
2015-06-08 01:21:00,1828E-3,5C000000,-0724,0827,12064,030.7,045.5,0.471,733.4,01.19,0.508
2015-06-08 01:22:00,1895E-3,5C000000,-0724,0827,12306,030.7,045.5,0.472,733.4,01.19,0.508
2015-06-08 01:23:00,1817E-3,5C000000,-0724,0828,12248,030.7,045.5,0.471,733.4,01.19,0.508
2015-06-08 01:24:00,1904E-3,5C000000,-0724,0829,12390,030.8,045.5,0.472,733.4,01.19,0.508
2015-06-08 01:25:00,1897E-3,5C000000,-0724,0828,12263,030.7,045.5,0.471,733.5,01.19,0.508
2015-06-08 01:26:00,1701E-3,5C000000,-0724,0827,12160,030.7,045.5,0.471,733.5,01.19,0.508
2015-06-08 01:27:00,1827E-3,5C000000,-0724,0828,12308,030.7,045.5,0.472,733.5,01.19,0.508
2015-06-08 01:28:00,1794E-3,5C000000,-0724,0828,12187,030.7,045.5,0.471,733.5,01.19,0.508
2015-06-08 01:29:00,1793E-3,5C000000,-0724,0828,12226,030.7,045.5,0.472,733.5,01.19,0.508
2015-06-08 01:30:00,1658E-3,5C000000,-0724,0828,12246,030.7,045.5,0.471,733.5,01.19,0.508
2015-06-08 01:31:00,1838E-3,5C000000,-0724,0827,12329,030.7,045.5,0.472,733.5,01.19,0.508
2015-06-08 01:32:00,1705E-3,5C000000,-0724,0827,12253,030.7,045.5,0.471,733.5,01.19,0.508
2015-06-08 01:33:00,1788E-3,5C000000,-0724,0828,12118,030.7,045.5,0.471,733.5,01.19,0.508
2015-06-08 01:34:00,1769E-3,5C000000,-0724,0828,12291,030.7,045.5,0.472,733.5,01.19,0.508
2015-06-08 01:35:00,1692E-3,5C000000,-0724,0828,12198,030.7,045.5,0.471,733.4,01.19,0.508
2015-06-08 01:36:00,1720E-3,5C000000,-0724,0828,12202,030.6,045.5,0.472,733.4,01.19,0.508
2015-06-08 01:37:00,1747E-3,5C000000,-0724,0827,12227,030.6,045.6,0.471,733.4,01.19,0.508
2015-06-08 01:38:00,1762E-3,5C000000,-0724,0828,12141,030.6,045.5,0.472,733.4,01.19,0.508
2015-06-08 01:39:00,1645E-3,5C000000,-0724,0828,12173,030.6,045.5,0.472,733.4,01.19,0.508
2015-06-08 01:40:00,1726E-3,5C000000,-0724,0828,12150,030.6,045.5,0.471,733.4,01.19,0.508
2015-06-08 01:41:00,1762E-3,5C000000,-0724,0828,12256,030.6,045.5,0.472,733.4,01.19,0.508
2015-06-08 01:42:00,1723E-3,5C000000,-0724,0827,12312,030.6,045.5,0.471,733.4,01.19,0.508
2015-06-08 01:43:00,1733E-3,5C000000,-0724,0828,12128,030.6,045.5,0.471,733.4,01.19,0.508
2015-06-08 01:44:00,1780E-3,5C000000,-0724,0828,12053,030.6,045.5,0.472,733.4,01.19,0.508
2015-06-08 01:45:00,1736E-3,5C000000,-0724,0827,12268,030.6,045.5,0.471,733.3,01.19,0.508
2015-06-08 01:46:00,1676E-3,5C000000,-0724,0828,12249,030.6,045.5,0.472,733.3,01.19,0.508
2015-06-08 01:47:00,1777E-3,5C000000,-0724,0828,12345,030.6,045.5,0.472,733.3,01.19,0.508
2015-06-08 01:48:00,1881E-3,5C000000,-0724,0827,12149,030.5,045.5,0.471,733.3,01.19,0.508
2015-06-08 01:49:00,1651E-3,5C000000,-0724,0827,12119,030.6,045.5,0.472,733.3,01.19,0.508
2015-06-08 01:50:00,1752E-3,5C000000,-0724,0828,12236,030.6,045.5,0.471,733.3,01.19,0.508
2015-06-08 01:51:00,1905E-3,5C000000,-0724,0828,12381,030.6,045.5,0.471,733.2,01.19,0.508
2015-06-08 01:52:00,1716E-3,5C000000,-0724,0827,12280,030.5,045.5,0.472,733.2,01.19,0.508
2015-06-08 01:53:00,1850E-3,5C000000,-0724,0827,12146,030.6,045.5,0.471,733.2,01.19,0.508
2015-06-08 01:54:00,1771E-3,5C000000,-0724,0827,12241,030.5,045.5,0.472,733.3,01.19,0.508
2015-06-08 01:55:00,1706E-3,5C000000,-0724,0828,12204,030.5,045.5,0.472,733.2,01.19,0.508
2015-06-08 01:56:00,1795E-3,5C000000,-0724,0826,12016,030.5,045.5,0.471,733.2,01.19,0.508
2015-06-08 01:57:00,1687E-3,5C000000,-0724,0827,12201,030.5,045.5,0.472,733.2,01.19,0.508
2015-06-08 01:58:00,1659E-3,5C000000,-0724,0828,12303,030.5,045.5,0.472,733.2,01.19,0.508
2015-06-08 01:59:00,1768E-3,5C000000,-0724,0827,12168,030.5,045.5,0.471,733.2,01.19,0.508
2015-06-08 02:00:00,2015E-3,5C000000,-0724,0827,12130,030.5,045.5,0.472,733.2,01.19,0.508
2015-06-08 02:01:00,1962E-3,5C000000,-0724,0827,12235,030.5,045.5,0.472,733.2,01.19,0.508
2015-06-08 02:02:00,1571E-3,5C000000,-0724,0827,12246,030.5,045.5,0.471,733.2,01.19,0.508
2015-06-08 02:03:00,1779E-3,5C000000,-0724,0828,12212,030.5,045.5,0.472,733.2,01.19,0.508
2015-06-08 02:04:00,1704E-3,5C000000,-0724,0827,12305,030.5,045.5,0.472,733.2,01.19,0.508
2015-06-08 02:05:00,1787E-3,5C000000,-0724,0828,12182,030.4,045.5,0.471,733.2,01.19,0.508
2015-06-08 02:06:00,1761E-3,5C000000,-0724,0827,12250,030.4,045.5,0.472,733.2,01.19,0.508
2015-06-08 02:07:00,1662E-3,5C000000,-0724,0827,12074,030.4,045.5,0.472,733.2,01.19,0.508
2015-06-08 02:08:00,1720E-3,5C000000,-0724,0827,12347,030.4,045.5,0.471,733.2,01.19,0.508
2015-06-08 02:09:00,1808E-3,5C000000,-0724,0827,12072,030.4,045.5,0.472,733.2,01.19,0.508
2015-06-08 02:10:00,1674E-3,5C000000,-0724,0827,12113,030.4,045.5,0.472,733.2,01.19,0.508
2015-06-08 02:11:00,1768E-3,5C000000,-0724,0828,12357,030.4,045.5,0.471,733.2,01.19,0.508
2015-06-08 02:12:00,1717E-3,5C000000,-0724,0827,12232,030.4,045.5,0.472,733.2,01.19,0.508
2015-06-08 02:13:00,1731E-3,5C000000,-0724,0827,12173,030.4,045.5,0.472,733.2,01.19,0.508
2015-06-08 02:14:00,1841E-3,5C000000,-0724,0827,12284,030.4,045.5,0.472,733.2,01.19,0.508
2015-06-08 02:15:00,1875E-3,5C000000,-0724,0827,12168,030.4,045.5,0.472,733.2,01.19,0.508
2015-06-08 02:16:00,1693E-3,5C000000,-0724,0828,12256,030.4,045.5,0.472,733.2,01.19,0.508
2015-06-08 02:17:00,1840E-3,5C000000,-0724,0827,12090,030.3,045.5,0.472,733.2,01.19,0.508
2015-06-08 02:18:00,1669E-3,5C000000,-0724,0827,12259,030.3,045.5,0.472,733.2,01.19,0.508
2015-06-08 02:19:00,1748E-3,5C000000,-0724,0827,12194,030.3,045.5,0.472,733.2,01.19,0.508
2015-06-08 02:20:00,1687E-3,5C000000,-0724,0827,12246,030.4,045.5,0.472,733.2,01.19,0.508
2015-06-08 02:21:00,1694E-3,5C000000,-0724,0828,12240,030.3,045.5,0.472,733.3,01.19,0.508
2015-06-08 02:22:00,1740E-3,5C000000,-0724,0827,12323,030.3,045.5,0.472,733.3,01.19,0.508
2015-06-08 02:23:00,1716E-3,5C000000,-0724,0827,12246,030.3,045.5,0.472,733.3,01.19,0.508
2015-06-08 02:24:00,1669E-3,5C000000,-0724,0827,12285,030.3,045.5,0.472,733.3,01.19,0.508
2015-06-08 02:25:00,1582E-3,5C000000,-0724,0828,12165,030.3,045.5,0.472,733.3,01.19,0.508
2015-06-08 02:26:00,1716E-3,5C000000,-0724,0827,12173,030.3,045.5,0.472,733.3,01.19,0.508
2015-06-08 02:27:00,1730E-3,5C000000,-0724,0827,12037,030.3,045.5,0.472,733.3,01.19,0.508
2015-06-08 02:28:00,1726E-3,5C000000,-0724,0828,12339,030.3,045.5,0.472,733.2,01.19,0.508
2015-06-08 02:29:00,1756E-3,5C000000,-0724,0827,12191,030.3,045.5,0.472,733.3,01.19,0.508
2015-06-08 02:30:00,1786E-3,5C000000,-0724,0827,12237,030.3,045.5,0.472,733.2,01.19,0.508
2015-06-08 02:31:00,1681E-3,5C000000,-0724,0828,12125,030.3,045.5,0.472,733.2,01.19,0.508
2015-06-08 02:32:00,1764E-3,5C000000,-0724,0827,12180,030.3,045.5,0.472,733.2,01.19,0.508
2015-06-08 02:33:00,1653E-3,5C000000,-0724,0827,12346,030.3,045.5,0.472,733.2,01.19,0.508
2015-06-08 02:34:00,1716E-3,5C000000,-0724,0827,12495,030.2,045.5,0.472,733.2,01.19,0.508
2015-06-08 02:35:00,1772E-3,5C000000,-0724,0827,12311,030.2,045.5,0.472,733.3,01.19,0.508
2015-06-08 02:36:00,1812E-3,5C000000,-0724,0827,12300,030.3,045.5,0.472,733.3,01.19,0.508
2015-06-08 02:37:00,1853E-3,5C000000,-0724,0826,12219,030.2,045.5,0.472,733.3,01.19,0.508
2015-06-08 02:38:00,1792E-3,5C000000,-0724,0827,12118,030.2,045.5,0.472,733.3,01.19,0.508
2015-06-08 02:39:00,1716E-3,5C000000,-0724,0827,12271,030.2,045.5,0.472,733.3,01.19,0.508
2015-06-08 02:40:00,1787E-3,5C000000,-0724,0827,12171,030.2,045.5,0.472,733.3,01.19,0.508
2015-06-08 02:41:00,1702E-3,5C000000,-0724,0827,12290,030.2,045.5,0.472,733.3,01.19,0.508
2015-06-08 02:42:00,1636E-3,5C000000,-0724,0828,12259,030.2,045.5,0.472,733.3,01.19,0.508
2015-06-08 02:43:00,1720E-3,5C000000,-0724,0827,12235,030.2,045.5,0.473,733.3,01.19,0.508
2015-06-08 02:44:00,1812E-3,5C000000,-0724,0827,12259,030.2,045.5,0.472,733.3,01.19,0.508
2015-06-08 02:45:00,1808E-3,5C000000,-0724,0828,12038,030.2,045.5,0.472,733.3,01.19,0.508
2015-06-08 02:46:00,1662E-3,5C000000,-0724,0828,12334,030.2,045.5,0.472,733.4,01.19,0.508
2015-06-08 02:47:00,1665E-3,5C000000,-0724,0827,12260,030.2,045.5,0.472,733.4,01.19,0.508
2015-06-08 02:48:00,1788E-3,5C000000,-0724,0827,12219,030.1,045.5,0.472,733.3,01.19,0.508
2015-06-08 02:49:00,1720E-3,5C000000,-0724,0827,12234,030.1,045.5,0.472,733.4,01.19,0.508
2015-06-08 02:50:00,1744E-3,5C000000,-0724,0827,12338,030.1,045.5,0.473,733.4,01.19,0.508
2015-06-08 02:51:00,1738E-3,5C000000,-0724,0827,12248,030.1,045.5,0.472,733.4,01.19,0.508
2015-06-08 02:52:00,1784E-3,5C000000,-0724,0826,12217,030.1,045.5,0.472,733.4,01.19,0.508
2015-06-08 02:53:00,1729E-3,5C000000,-0724,0827,12207,030.1,045.5,0.472,733.4,01.19,0.508
2015-06-08 02:54:00,1827E-3,5C000000,-0724,0827,12285,030.1,045.5,0.473,733.4,01.19,0.508
2015-06-08 02:55:00,1734E-3,5C000000,-0724,0827,12365,030.1,045.5,0.472,733.4,01.19,0.508
2015-06-08 02:56:00,1690E-3,5C000000,-0724,0827,12251,030.1,045.5,0.472,733.4,01.19,0.508
2015-06-08 02:57:00,1702E-3,5C000000,-0724,0827,11995,030.1,045.5,0.473,733.4,01.19,0.508
2015-06-08 02:58:00,1759E-3,5C000000,-0724,0827,12178,030.1,045.5,0.472,733.5,01.19,0.508
2015-06-08 02:59:00,1691E-3,5C000000,-0724,0828,12148,030.1,045.5,0.472,733.4,01.19,0.508
2015-06-08 03:00:00,1767E-3,5C000000,-0724,0828,12397,030.1,045.5,0.473,733.5,01.19,0.508
2015-06-08 03:01:00,1704E-3,5C000000,-0724,0828,12096,030.0,045.5,0.473,733.5,01.19,0.508
2015-06-08 03:02:00,1817E-3,5C000000,-0724,0828,12193,030.1,045.5,0.472,733.5,01.19,0.508
2015-06-08 03:03:00,1727E-3,5C000000,-0724,0826,12230,030.1,045.5,0.472,733.5,01.19,0.508
2015-06-08 03:04:00,1799E-3,5C000000,-0724,0827,12224,030.1,045.5,0.473,733.5,01.19,0.508
2015-06-08 03:05:00,1726E-3,5C000000,-0724,0827,12232,030.0,045.5,0.473,733.5,01.19,0.508
2015-06-08 03:06:00,1825E-3,5C000000,-0724,0827,12267,030.0,045.5,0.472,733.5,01.19,0.508
2015-06-08 03:07:00,1731E-3,5C000000,-0724,0827,12169,030.0,045.5,0.472,733.5,01.19,0.508
2015-06-08 03:08:00,1757E-3,5C000000,-0724,0828,12202,030.0,045.5,0.473,733.5,01.19,0.508
2015-06-08 03:09:00,1661E-3,5C000000,-0724,0827,12086,030.0,045.5,0.472,733.5,01.19,0.508
2015-06-08 03:10:00,1824E-3,5C000000,-0724,0828,12281,030.0,045.5,0.472,733.4,01.19,0.508
2015-06-08 03:11:00,1735E-3,5C000000,-0724,0829,12280,030.0,045.5,0.473,733.4,01.19,0.508
2015-06-08 03:12:00,1640E-3,5C000000,-0724,0827,12156,030.0,045.5,0.473,733.4,01.19,0.508
2015-06-08 03:13:00,1837E-3,5C000000,-0724,0827,12254,030.0,045.5,0.472,733.4,01.19,0.508
2015-06-08 03:14:00,1841E-3,5C000000,-0724,0827,12161,030.0,045.5,0.472,733.5,01.19,0.508
2015-06-08 03:15:00,1830E-3,5C000000,-0724,0828,12165,030.0,045.5,0.473,733.4,01.19,0.508
2015-06-08 03:16:00,1720E-3,5C000000,-0724,0827,12113,030.0,045.5,0.473,733.4,01.19,0.508
2015-06-08 03:17:00,1700E-3,5C000000,-0724,0827,12148,030.0,045.5,0.472,733.4,01.19,0.508
2015-06-08 03:18:00,1774E-3,5C000000,-0724,0827,12166,030.0,045.5,0.472,733.4,01.19,0.508
2015-06-08 03:19:00,1808E-3,5C000000,-0724,0826,12274,029.9,045.5,0.473,733.4,01.19,0.508
2015-06-08 03:20:00,1676E-3,5C000000,-0724,0825,12372,030.0,045.5,0.473,733.5,01.19,0.508
2015-06-08 03:21:00,1892E-3,5C000000,-0724,0826,12312,030.0,045.5,0.472,733.5,01.19,0.508
2015-06-08 03:22:00,1735E-3,5C000000,-0724,0827,12255,029.9,045.5,0.472,733.5,01.19,0.508
2015-06-08 03:23:00,1618E-3,5C000000,-0724,0826,12198,029.9,045.5,0.473,733.5,01.19,0.508
2015-06-08 03:24:00,1679E-3,5C000000,-0724,0825,12244,029.9,045.5,0.473,733.5,01.19,0.508
2015-06-08 03:25:00,1753E-3,5C000000,-0724,0827,12166,029.9,045.5,0.472,733.5,01.19,0.508
2015-06-08 03:26:00,1785E-3,5C000000,-0724,0826,12324,029.9,045.5,0.473,733.5,01.19,0.508
2015-06-08 03:27:00,1692E-3,5C000000,-0724,0826,12169,029.9,045.5,0.473,733.5,01.19,0.508
2015-06-08 03:28:00,2079E-3,5C000000,-0724,0826,12249,029.9,045.5,0.473,733.5,01.19,0.508
2015-06-08 03:29:00,2021E-3,5C000000,-0724,0826,12259,029.9,045.5,0.472,733.5,01.19,0.508
2015-06-08 03:30:00,1796E-3,5C000000,-0724,0828,12243,029.9,045.5,0.473,733.5,01.19,0.508
2015-06-08 03:31:00,1816E-3,5C000000,-0724,0826,12262,029.9,045.5,0.473,733.5,01.19,0.508
2015-06-08 03:32:00,1773E-3,5C000000,-0724,0826,12422,029.9,045.5,0.473,733.5,01.19,0.508
2015-06-08 03:33:00,1926E-3,5C000000,-0724,0826,12248,029.9,045.5,0.472,733.5,01.19,0.508
2015-06-08 03:34:00,1997E-3,5C000000,-0724,0827,12199,029.9,045.5,0.473,733.5,01.19,0.508
2015-06-08 03:35:00,1744E-3,5C000000,-0724,0827,12190,029.8,045.5,0.473,733.5,01.19,0.508
2015-06-08 03:36:00,1841E-3,5C000000,-0724,0828,12170,029.9,045.5,0.473,733.5,01.19,0.508
2015-06-08 03:37:00,1735E-3,5C000000,-0724,0826,12172,029.8,045.5,0.472,733.5,01.19,0.508
2015-06-08 03:38:00,1694E-3,5C000000,-0724,0827,12167,029.8,045.5,0.473,733.5,01.19,0.508
2015-06-08 03:39:00,1788E-3,5C000000,-0724,0828,12219,029.8,045.5,0.473,733.5,01.19,0.508
2015-06-08 03:40:00,1646E-3,5C000000,-0724,0827,12232,029.8,045.5,0.473,733.5,01.19,0.508
2015-06-08 03:41:00,1753E-3,5C000000,-0724,0827,12119,029.8,045.5,0.472,733.5,01.19,0.508
2015-06-08 03:42:00,1748E-3,5C000000,-0724,0828,12272,029.8,045.5,0.473,733.5,01.19,0.508
2015-06-08 03:43:00,1797E-3,5C000000,-0724,0827,12015,029.8,045.5,0.473,733.5,01.19,0.508
2015-06-08 03:44:00,1905E-3,5C000000,-0724,0827,12277,029.8,045.5,0.473,733.4,01.19,0.508
2015-06-08 03:45:00,1626E-3,5C000000,-0724,0827,12316,029.8,045.5,0.472,733.4,01.19,0.508
2015-06-08 03:46:00,1704E-3,5C000000,-0724,0827,12121,029.8,045.5,0.473,733.4,01.19,0.508
2015-06-08 03:47:00,1654E-3,5C000000,-0724,0827,12253,029.8,045.5,0.473,733.4,01.19,0.508
2015-06-08 03:48:00,1756E-3,5C000000,-0724,0826,12325,029.8,045.5,0.473,733.4,01.19,0.508
2015-06-08 03:49:00,1752E-3,5C000000,-0724,0827,12184,029.8,045.5,0.473,733.4,01.19,0.508
2015-06-08 03:50:00,1892E-3,5C000000,-0724,0827,12279,029.8,045.5,0.473,733.4,01.19,0.508
2015-06-08 03:51:00,1720E-3,5C000000,-0724,0827,12235,029.8,045.5,0.473,733.4,01.19,0.508
2015-06-08 03:52:00,1685E-3,5C000000,-0724,0827,12112,029.8,045.5,0.473,733.4,01.19,0.508
2015-06-08 03:53:00,1615E-3,5C000000,-0724,0828,12268,029.7,045.5,0.473,733.4,01.19,0.508
2015-06-08 03:54:00,1753E-3,5C000000,-0724,0827,12167,029.7,045.5,0.473,733.4,01.19,0.508
2015-06-08 03:55:00,1768E-3,5C000000,-0724,0827,12183,029.7,045.5,0.473,733.4,01.19,0.508
2015-06-08 03:56:00,1740E-3,5C000000,-0724,0827,12272,029.7,045.5,0.473,733.4,01.19,0.508
2015-06-08 03:57:00,1706E-3,5C000000,-0724,0828,12220,029.7,045.5,0.473,733.4,01.19,0.508
2015-06-08 03:58:00,1575E-3,5C000000,-0724,0827,12243,029.7,045.5,0.473,733.4,01.19,0.508
2015-06-08 03:59:00,1738E-3,5C000000,-0724,0827,12447,029.7,045.5,0.473,733.4,01.19,0.508
2015-06-08 04:00:00,1867E-3,5C000000,-0724,0827,12188,029.7,045.5,0.473,733.4,01.19,0.508
2015-06-08 04:01:00,1843E-3,5C000000,-0724,0826,12193,029.7,045.5,0.473,733.4,01.19,0.508
2015-06-08 04:02:00,1785E-3,5C000000,-0724,0826,12395,029.7,045.5,0.473,733.4,01.19,0.508
2015-06-08 04:03:00,1812E-3,5C000000,-0724,0827,12236,029.7,045.5,0.473,733.4,01.19,0.508
2015-06-08 04:04:00,1659E-3,5C000000,-0724,0826,12282,029.7,045.5,0.473,733.4,01.19,0.508
2015-06-08 04:05:00,1769E-3,5C000000,-0724,0826,12185,029.7,045.5,0.473,733.4,01.19,0.508
2015-06-08 04:06:00,1842E-3,5C000000,-0724,0827,12320,029.7,045.5,0.473,733.4,01.19,0.508
2015-06-08 04:07:00,1717E-3,5C000000,-0724,0827,12357,029.7,045.5,0.473,733.4,01.19,0.508
2015-06-08 04:08:00,1837E-3,5C000000,-0724,0827,12229,029.7,045.5,0.473,733.4,01.19,0.508
2015-06-08 04:09:00,1752E-3,5C000000,-0724,0826,12184,029.7,045.5,0.473,733.4,01.19,0.508
2015-06-08 04:10:00,1693E-3,5C000000,-0724,0825,12227,029.7,045.5,0.473,733.4,01.19,0.508
2015-06-08 04:11:00,1750E-3,5C000000,-0724,0826,12274,029.6,045.5,0.473,733.3,01.19,0.508
2015-06-08 04:12:00,1717E-3,5C000000,-0724,0826,12236,029.7,045.5,0.473,733.4,01.19,0.508
2015-06-08 04:13:00,1711E-3,5C000000,-0724,0827,12366,029.6,045.5,0.473,733.4,01.19,0.508
2015-06-08 04:14:00,1726E-3,5C000000,-0724,0827,12144,029.6,045.5,0.473,733.3,01.19,0.508
2015-06-08 04:15:00,1760E-3,5C000000,-0724,0826,12155,029.6,045.5,0.473,733.3,01.19,0.508
2015-06-08 04:16:00,1642E-3,5C000000,-0724,0826,12264,029.6,045.5,0.473,733.3,01.19,0.508
2015-06-08 04:17:00,1636E-3,5C000000,-0724,0827,12363,029.6,045.5,0.473,733.3,01.19,0.508
2015-06-08 04:18:00,1751E-3,5C000000,-0724,0827,12334,029.6,045.5,0.473,733.3,01.19,0.508
2015-06-08 04:19:00,1770E-3,5C000000,-0724,0827,12130,029.6,045.5,0.473,733.3,01.19,0.508
2015-06-08 04:20:00,1663E-3,5C000000,-0724,0827,12021,029.6,045.5,0.473,733.3,01.19,0.508